This demonstration page uses our WeatherBlox Daily Observations layout. Learn more.

Hourly Observations for June 10, 2017

Temp ( °F °C ) Dew Point ( °F °C ) Humidity (%) Winds ( mph kmh ) Pressure ( in mb ) Visibility ( mi km ) Precip ( " mm )
12:15 am 00:15 Clear 66 19 55 13 68 68 SSW 7 11 30 1016 10 16.09344 0 0
12:35 am 00:35 Partly Cloudy 63 17 57 14 83 83 SW 3 6 30 1016 10 16.09344 0 0
12:55 am 00:55 Mostly Cloudy 64 18 55 13 73 73 WSW 5 7 30 1016 10 16.09344 0 0
1:15 am 01:15 Partly Cloudy 63 17 57 14 83 83 W 3 6 30 1016 10 16.09344 0 0
1:35 am 01:35 Clear 64 18 55 13 73 73 SW 5 7 30 1016 10 16.09344 0 0
1:55 am 01:55 Clear 61 16 57 14 88 88 SW 3 6 30 1016 10 16.09344 0 0
2:15 am 02:15 Clear 63 17 55 13 77 77 WSW 5 7 30 1016 10 16.09344 0 0
2:35 am 02:35 Clear 63 17 55 13 77 77 Calm 30 1016 10 16.09344 0 0
2:55 am 02:55 Clear 64 18 55 13 73 73 Calm 30 1016 10 16.09344 0 0
3:15 am 03:15 Clear 63 17 55 13 77 77 S 5 7 30 1016 10 16.09344 0 0
3:35 am 03:35 Clear 61 16 55 13 83 83 Calm 30 1016 10 16.09344 0 0
3:55 am 03:55 Clear 61 16 57 14 88 88 Calm 30 1016 10 16.09344 0 0
4:15 am 04:15 Clear 63 17 55 13 77 77 Calm 30 1016 10 16.09344 0 0
4:35 am 04:35 Clear 61 16 55 13 83 83 Calm 30 1016 10 16.09344 0 0
4:55 am 04:55 Clear 63 17 57 14 83 83 Calm 30 1016 10 16.09344 0 0
5:15 am 05:15 Clear 61 16 57 14 88 88 Calm 30 1016 10 16.09344 0 0
5:35 am 05:35 Clear 61 16 57 14 88 88 Calm 30 1016 10 16.09344 0 0
5:55 am 05:55 Partly Cloudy 59 15 57 14 94 94 Calm 30 1016 10 16.09344 0 0
6:15 am 06:15 Sunny 59 15 55 13 88 88 Calm 30 1016 10 16.09344 0 0
6:35 am 06:35 Sunny 59 15 57 14 94 94 Calm 30.03 1017 10 16.09344 0 0
6:55 am 06:55 Sunny 61 16 59 15 94 94 Calm 30.03 1017 10 16.09344 0 0
7:15 am 07:15 Sunny 63 17 59 15 88 88 Calm 30.03 1017 10 16.09344 0 0
7:35 am 07:35 Sunny 64 18 59 15 83 83 Calm 30.03 1017 10 16.09344 0 0
7:55 am 07:55 Sunny 68 20 59 15 73 73 Calm 30.06 1018 10 16.09344 0 0
8:15 am 08:15 Sunny 68 20 59 15 73 73 Calm 30.06 1018 10 16.09344 0 0
8:35 am 08:35 Sunny 72 22 59 15 65 65 Calm 30.06 1018 10 16.09344 0 0
8:55 am 08:55 Sunny 73 23 61 16 65 65 Calm 30.06 1018 10 16.09344 0 0
9:15 am 09:15 Sunny 75 24 61 16 61 61 Calm 30.06 1018 10 16.09344 0 0
9:35 am 09:35 Sunny 77 25 61 16 57 57 Calm 30.06 1018 10 16.09344 0 0
9:55 am 09:55 Sunny 79 26 61 16 54 54 W 3 6 30.06 1018 10 16.09344 0 0
10:15 am 10:15 Sunny 81 27 59 15 48 48 W 5 7 30.06 1018 10 16.09344 0 0
10:35 am 10:35 Sunny 82 28 63 17 51 51 WNW 5 7 30.06 1018 10 16.09344 0 0
10:55 am 10:55 Sunny 81 27 61 16 51 51 W 7 11 30.06 1018 10 16.09344 0 0
11:15 am 11:15 Sunny 82 28 63 17 51 51 W 5 7 30.06 1018 10 16.09344 0 0
11:35 am 11:35 Sunny 82 28 61 16 48 48 WSW 6 9 30.06 1018 10 16.09344 0 0
11:55 am 11:55 Sunny 86 30 61 16 43 43 SW 3 6 30.06 1018 10 16.09344 0 0
12:15 pm 12:15 Sunny 86 30 61 16 43 43 S 5 7 30.06 1018 10 16.09344 0 0
12:35 pm 12:35 Sunny 86 30 59 15 40 40 W 7 11 30.06 1018 10 16.09344 0 0
12:55 pm 12:55 Sunny 86 30 59 15 40 40 WSW 5 7 30.06 1018 10 16.09344 0 0
1:15 pm 13:15 Sunny 84 29 59 15 43 43 SSW 5 7 30.06 1018 10 16.09344 0 0
1:35 pm 13:35 Sunny 88 31 59 15 38 38 SSW 7 11 30.03 1017 10 16.09344 0 0
1:55 pm 13:55 Sunny 86 30 61 16 43 43 SSW 5 7 30.06 1018 10 16.09344 0 0
2:15 pm 14:15 Sunny 88 31 63 17 43 43 SSW 7 11 30.03 1017 10 16.09344 0 0
2:35 pm 14:35 Sunny 88 31 61 16 40 40 SW 6 9 30.03 1017 10 16.09344 0 0
2:55 pm 14:55 Sunny 88 31 61 16 40 40 Calm 30.03 1017 10 16.09344 0 0
3:15 pm 15:15 Sunny 88 31 61 16 40 40 SW 3 6 30 1016 10 16.09344 0 0
3:35 pm 15:35 Sunny 88 31 61 16 40 40 S 7 11 30 1016 10 16.09344 0 0
3:55 pm 15:55 Sunny 88 31 61 16 40 40 SSW 8 13 30 1016 10 16.09344 0 0
4:15 pm 16:15 Sunny 88 31 63 17 43 43 W 3 6 30 1016 10 16.09344 0 0
4:35 pm 16:35 Sunny 88 31 63 17 43 43 W 5 7 30 1016 10 16.09344 0 0
4:55 pm 16:55 Sunny 88 31 61 16 40 40 SSW 7 11 30 1016 10 16.09344 0 0
5:15 pm 17:15 Sunny 88 31 61 16 40 40 SSW 3 6 30 1016 10 16.09344 0 0
5:35 pm 17:35 Sunny 88 31 61 16 40 40 SSW 7 11 30 1016 10 16.09344 0 0
5:55 pm 17:55 Sunny 88 31 61 16 40 40 SSW 7 11 30 1016 10 16.09344 0 0
6:15 pm 18:15 Sunny 88 31 63 17 43 43 SSW 8 13 30 1016 10 16.09344 0 0
6:35 pm 18:35 Sunny 88 31 61 16 40 40 SW 7 11 30 1016 10 16.09344 0 0
6:55 pm 18:55 Sunny 88 31 61 16 40 40 SW 5 7 30 1016 10 16.09344 0 0
7:15 pm 19:15 Sunny 86 30 63 17 46 46 SW 5 7 30.03 1017 10 16.09344 0 0
7:35 pm 19:35 Sunny 86 30 63 17 46 46 SW 3 6 30.03 1017 10 16.09344 0 0
7:55 pm 19:55 Sunny 84 29 63 17 48 48 SSW 3 6 30.03 1017 10 16.09344 0 0
8:15 pm 20:15 Sunny 82 28 63 17 51 51 SSW 3 6 30.03 1017 10 16.09344 0 0
8:35 pm 20:35 Sunny 82 28 64 18 55 55 SSW 5 7 30.06 1018 10 16.09344 0 0
8:55 pm 20:55 Clear 81 27 64 18 58 58 S 3 6 30.06 1018 10 16.09344 0 0
9:15 pm 21:15 Clear 79 26 64 18 61 61 SSW 5 7 30.06 1018 10 16.09344 0 0
9:35 pm 21:35 Clear 79 26 64 18 61 61 SSW 6 9 30.06 1018 10 16.09344 0 0
9:55 pm 21:55 Clear 79 26 64 18 61 61 SSW 5 7 30.06 1018 10 16.09344 0 0
10:15 pm 22:15 Clear 77 25 64 18 65 65 SSW 5 7 30.09 1019 10 16.09344 0 0
10:35 pm 22:35 Clear 77 25 64 18 65 65 SSW 5 7 30.09 1019 10 16.09344 0 0
10:55 pm 22:55 Clear 77 25 64 18 65 65 S 7 11 30.09 1019 10 16.09344 0 0
11:15 pm 23:15 Clear 75 24 64 18 69 69 S 6 9 30.09 1019 10 16.09344 0 0
11:35 pm 23:35 Clear 75 24 64 18 69 69 SSW 6 9 30.09 1019 10 16.09344 0 0
11:55 pm 23:55 Clear 72 22 64 18 78 78 SW 5 7 30.09 1019 10 16.09344 0 0

Powered by AerisWeather